TimeMST,TemperatureF,Dew PointF,Humidity,Sea Level PressureIn,VisibilityMPH,Wind Direction,Wind SpeedMPH,Gust SpeedMPH,PrecipitationIn,Events,Conditions,WindDirDegrees,DateUTC
12:03 AM,26.6,23.0,86,30.17,10.0,East,3.5,-,N/A,,Overcast,80,2013-02-07 07:03:00
12:53 AM,27.0,24.1,89,30.28,10.0,Calm,Calm,-,N/A,,Overcast,0,2013-02-07 07:53:00
1:53 AM,26.1,21.9,84,30.27,9.0,Calm,Calm,-,N/A,,Mostly Cloudy,0,2013-02-07 08:53:00
2:53 AM,23.0,21.0,92,30.28,7.0,Calm,Calm,-,N/A,,Clear,0,2013-02-07 09:53:00
3:02 AM,19.4,17.6,93,30.16,1.8,Calm,Calm,-,N/A,,Clear,0,2013-02-07 10:02:00
3:10 AM,21.2,17.6,86,30.15,3.0,Calm,Calm,-,N/A,,Clear,0,2013-02-07 10:10:00
3:53 AM,19.0,15.1,85,30.27,10.0,Calm,Calm,-,N/A,,Clear,0,2013-02-07 10:53:00
4:53 AM,16.0,14.0,92,30.27,10.0,Calm,Calm,-,N/A,,Clear,0,2013-02-07 11:53:00
5:53 AM,19.0,17.1,92,30.26,7.0,Calm,Calm,-,N/A,,Overcast,0,2013-02-07 12:53:00
6:53 AM,23.0,16.0,74,30.23,10.0,Calm,Calm,-,N/A,,Scattered Clouds,0,2013-02-07 13:53:00
7:53 AM,19.0,14.0,81,30.25,9.0,NE,3.5,-,N/A,,Clear,40,2013-02-07 14:53:00
8:53 AM,19.9,12.9,74,30.25,10.0,NE,6.9,-,N/A,,Clear,50,2013-02-07 15:53:00
9:53 AM,21.9,12.9,68,30.23,10.0,NNE,4.6,-,N/A,,Clear,30,2013-02-07 16:53:00
10:53 AM,21.9,12.9,68,30.22,10.0,NE,3.5,-,N/A,,Clear,50,2013-02-07 17:53:00
11:53 AM,24.1,14.0,65,30.19,10.0,ENE,5.8,-,N/A,,Clear,60,2013-02-07 18:53:00
12:53 PM,26.1,16.0,66,30.14,10.0,East,5.8,-,N/A,,Clear,80,2013-02-07 19:53:00
1:53 PM,28.9,16.0,58,30.11,10.0,NE,5.8,-,N/A,,Clear,50,2013-02-07 20:53:00
2:53 PM,30.9,18.0,59,30.07,10.0,NE,6.9,-,N/A,,Clear,50,2013-02-07 21:53:00
3:53 PM,32.0,21.0,64,30.06,10.0,NE,6.9,-,N/A,,Clear,50,2013-02-07 22:53:00
4:53 PM,30.9,21.0,67,30.06,10.0,ENE,4.6,-,N/A,,Clear,60,2013-02-07 23:53:00
5:53 PM,28.0,19.0,69,30.06,10.0,East,4.6,-,N/A,,Clear,80,2013-02-08 00:53:00
6:53 PM,26.1,17.1,69,30.05,10.0,ENE,3.5,-,N/A,,Clear,60,2013-02-08 01:53:00
7:53 PM,25.0,16.0,69,30.06,10.0,NNE,4.6,-,N/A,,Clear,30,2013-02-08 02:53:00
8:53 PM,24.1,15.1,69,30.05,10.0,ENE,5.8,-,N/A,,Clear,60,2013-02-08 03:53:00
9:53 PM,23.0,14.0,68,30.04,10.0,NNE,4.6,-,N/A,,Clear,30,2013-02-08 04:53:00
10:53 PM,21.0,15.1,78,30.03,10.0,NE,5.8,-,N/A,,Clear,50,2013-02-08 05:53:00
11:53 PM,19.0,12.9,77,30.03,10.0,Calm,Calm,-,N/A,,Clear,0,2013-02-08 06:53:00